Regional Weather Roundup
Issued by NWS Midland/Odessa, TX

Skip options and go directly to product.
Home | Oldest Version | Next Version | Current Version | All | Text Only | Save Text | Print | Product List | Glossary On

Skip product version selection by date and time.   
115
ASUS44 KMAF 151010
RWRMAF
MIDLAND AREA WEATHER ROUNDUP
NATIONAL WEATHER SERVICE MIDLAND TX
400 AM CST SUN JAN 15 2017

...IN SOUTHWEST TEXAS AND SOUTHEAST NEW MEXICO...

CITY           SKY/WX    TMP DP  RH WIND       PRES   REMARKS
ALPINE         CLOUDY    38  37  99 NE3       30.08F VSB 3/4
ANDREWS        CLOUDY    38  38 100 NW5       30.16S WCI  34
ARTESIA        CLOUDY    39  39 100 N7        30.08S WCI  34
BIG SPRING     CLOUDY    33  33 100 NE7       30.14R WCI  27
CARLSBAD       CLOUDY    39  39 100 NW10      30.04F WCI  32
DRYDEN           N/A     61  60  97 SE13      30.02R
FORT STOCKTON  LGT RAIN  37  37 100 NE5       30.08F WCI  33
GUAD PASS      LGT RAIN  35  32  88 NE31      29.98F VSB 1/4 WCI  22
HOBBS          NOT AVBL
MARFA          CLOUDY    51  49  92 NE9       30.02F
MIDLAND AIRPK  DRIZZLE   36  36 100 NW5       30.14R WCI  32
MIDLAND INTL   LGT RAIN  36  34  92 NW9       30.13R FOG     WCI  29
ODESSA         LGT RAIN  36  33  89 N8        30.13R WCI  30
PECOS          CLOUDY    40  38  95 E9        30.05S WCI  34
PRESIDIO       FAIR      59  52  77 NE10G20   29.89F
SEMINOLE       RAIN      36  36 100 NE6       30.14F WCI  31
SNYDER         CLOUDY    31  31 100 NE12      30.13F FOG     WCI  22
WINK           CLOUDY    41  41 100 E10G22    30.02F WCI  35
$$
...OTHER STATIONS IN TEXAS...

CITY           SKY/WX    TMP DP  RH WIND       PRES   REMARKS
ABILENE        CLOUDY    34  34 100 NE6       30.19F FOG     WCI  29
AMARILLO       MIX PCPN  32  32 100 NE6       30.17R WCI  26
AUSTIN         DRZL/FOG  53  52  96 NE8       30.17F VSB 1/2
BROWNSVILLE    MOCLDY    71  68  90 SE9       30.08S
CORPUS CHRISTI MOCLDY    66  65  96 E9        30.09F
DALLAS FTW     FOG       43  43 100 N7        30.23F VSB 1/2 WCI  39
DEL RIO        CLOUDY    65  58  78 E16G24    30.03F
EL PASO        LGT RAIN  49  44  83 NE9       29.88F
HOUSTON INT    LGT RAIN  64  62  93 E8        30.17F
LUBBOCK        DRZL/FOG  33  33 100 NW9       30.13F VSB 1/4 WCI  25
SAN ANGELO     FOG       42  41  96 E12       30.11F VSB 1/2 WCI  36
SAN ANTONIO    CLOUDY    58  56  93 E5        30.14F FOG
WACO           FOG       45  45 100 N7        30.23S VSB 1/8
WICHITA FALLS  NOT AVBL
$$
...OTHER LOCATIONS IN NEW MEXICO...

CITY           SKY/WX    TMP DP  RH WIND       PRES   REMARKS
ALAMAGORDO     LGT RAIN  46  46 100 NW5       29.93F
ALBUQUERQUE    LGT RAIN  41  40  96 NW5       30.02F WCI  38
CANNON AFB     CLOUDY    33  33 100 NE12      30.08F FOG     WCI  24
CLOVIS         CLOUDY    34  30  86 NE12      30.10F WCI  25
HOLLOMAN AFB   LGT RAIN  46  46 100 N3        29.96F FOG
ROSWELL        CLOUDY    40  36  86 NE3       30.09R
RUIDOSO        FOG       32  32 100 S5        30.05F VSB 1/4 WCI  27
SANTA FE       CLOUDY    36  35  96 CALM      30.05F
TRUTH OR CONSE LGT RAIN  44  42  93 N12       29.92F WCI  38
TUCUMCARI      CLOUDY    33  32  96 NE6       30.12F WCI  28
$$

  • National Weather Service
  • Southern Region Headquarters
  • 819 Taylor Street, Room 10A06
  • Fort Worth, TX 76102
  • Page Author: NWS Fort Worth
  • Web Master: SR-SRH.Webmaster@noaa.gov
  •  
  • Page last modified: 30-Sep-2016 6:36 PM UTC
USA.gov is the U.S. government's official web portal to all federal, state and local government web resources and services.